St. Paul Lake Elmo, MN

5:59 AM CDT on June 24, 2017 (GMT -0500)
St. Paul Lake Elmo

Weather History for K21D - January, 2014

Change the Weather History Date:

Wednesday, January 1, 2014

  Actual Average (KSTP) Record (KSTP)
Temperature  
Mean Temperature -3 °F -  
Max Temperature 3 °F 24 °F 43 °F (1998)
Min Temperature -9 °F 10 °F -8 °F (2014)
Degree Days  
Heating Degree Days 68    
Moisture  
Dew Point -10 °F    
Average Humidity 68    
Maximum Humidity 78    
Minimum Humidity 61    
Precipitation  
Precipitation 0.00 in - - ()
Sea Level Pressure  
Sea Level Pressure 30.42 in    
Wind  
Wind Speed 5 mph (NNE)    
Max Wind Speed 7 mph    
Max Gust Speed -    
Visibility 10 miles    
Events      
Averages and records for this station are not official NWS values.
T = Trace of Precipitation, MM = Missing Value Source: NWS Daily Summary

Daily Weather History Graph

Daily Weather History Graph

Search for Another Location

Airport or City:

Trip Planner

Search our weather history database for the weather conditions in past years. The results will help you decide how hot, cold, wet, or windy it might be!

Date:

Astronomy

Jan. 01, 2014 Rise Set
Actual Time 7:49 AM CST 4:40 PM CST
Civil Twilight 7:16 AM CST 5:14 PM CST
Nautical Twilight 6:39 AM CST 5:51 PM CST
Astronomical Twilight 6:03 AM CST 6:27 PM CST
Moon 7:37 AM CST (1/1) 5:29 PM CST (1/1)
Length of Visible Light 9h 58m
Length of Day
8h 50m
New Moon, 0% of the Moon is Illuminated
Jan 1
New Moon
Jan 7
First Quarter
Jan 15
Full
Jan 23
Last Quarter
Jan 30
New

Hourly Weather History & Observations

Time (CST) Temp. Windchill Dew Point Humidity Pressure Visibility Wind Dir Wind Speed Gust Speed Precip Events Conditions
12:11 AM -7.6 °F -22.1 °F -14.8 °F 71% 30.40 in 10.0 mi NE 6.9 mph - N/A   Overcast
12:32 AM -7.6 °F -22.1 °F -14.8 °F 71% 30.40 in 10.0 mi NNE 6.9 mph - N/A   Overcast
12:51 AM -9.4 °F -24.3 °F -14.8 °F 77% 30.39 in 10.0 mi NNE 6.9 mph - N/A   Scattered Clouds
1:11 AM -9.4 °F -22.7 °F -16.6 °F 71% 30.40 in 10.0 mi NNE 5.8 mph - N/A   Scattered Clouds
1:32 AM -7.6 °F -20.6 °F -14.8 °F 71% 30.41 in 10.0 mi North 5.8 mph - N/A   Mostly Cloudy
1:51 AM -7.6 °F -20.6 °F -14.8 °F 71% 30.40 in 10.0 mi NNE 5.8 mph - N/A   Mostly Cloudy
2:12 AM -7.6 °F -20.6 °F -16.6 °F 65% 30.38 in 10.0 mi NE 5.8 mph - N/A   Overcast
2:31 AM -7.6 °F -20.6 °F -16.6 °F 65% 30.40 in 10.0 mi NNE 5.8 mph - N/A   Overcast
2:51 AM -7.6 °F -18.8 °F -14.8 °F 71% 30.40 in 10.0 mi NNE 4.6 mph - N/A   Overcast
3:11 AM -7.6 °F -22.1 °F -14.8 °F 71% 30.40 in 10.0 mi NE 6.9 mph - N/A   Overcast
3:31 AM -7.6 °F -20.6 °F -14.8 °F 71% 30.40 in 10.0 mi NE 5.8 mph - N/A   Overcast
3:52 AM -7.6 °F -18.8 °F -14.8 °F 71% 30.40 in 10.0 mi NNE 4.6 mph - N/A   Overcast
4:11 AM -7.6 °F -20.6 °F -14.8 °F 71% 30.40 in 10.0 mi NNE 5.8 mph - N/A   Overcast
4:31 AM -7.6 °F -22.1 °F -14.8 °F 71% 30.39 in 10.0 mi ENE 6.9 mph - N/A   Overcast
4:52 AM -7.6 °F -20.6 °F -14.8 °F 71% 30.39 in 10.0 mi NE 5.8 mph - N/A   Overcast
5:11 AM -7.6 °F -18.8 °F -14.8 °F 71% 30.39 in 10.0 mi NNE 4.6 mph - N/A   Overcast
5:31 AM -5.8 °F -14.5 °F -14.8 °F 65% 30.40 in 10.0 mi NNE 3.5 mph - N/A   Overcast
5:52 AM -5.8 °F -16.7 °F -14.8 °F 65% 30.41 in 10.0 mi NNE 4.6 mph - N/A   Overcast
6:11 AM -5.8 °F -16.7 °F -13.0 °F 71% 30.41 in 10.0 mi North 4.6 mph - N/A   Overcast
6:31 AM -5.8 °F -16.7 °F -13.0 °F 71% 30.41 in 10.0 mi North 4.6 mph - N/A   Overcast
6:52 AM -5.8 °F -16.7 °F -13.0 °F 71% 30.42 in 10.0 mi NNE 4.6 mph - N/A   Overcast
7:11 AM -5.8 °F -18.4 °F -13.0 °F 71% 30.42 in 10.0 mi NNE 5.8 mph - N/A   Overcast
7:32 AM -5.8 °F -16.7 °F -13.0 °F 71% 30.42 in 10.0 mi NNE 4.6 mph - N/A   Overcast
7:51 AM -5.8 °F -18.4 °F -13.0 °F 71% 30.43 in 10.0 mi NE 5.8 mph - N/A   Overcast
8:12 AM -5.8 °F -16.7 °F -13.0 °F 71% 30.44 in 10.0 mi NNE 4.6 mph - N/A   Overcast
8:31 AM -4.0 °F -14.6 °F -13.0 °F 65% 30.45 in 10.0 mi North 4.6 mph - N/A   Overcast
8:52 AM -4.0 °F -14.6 °F -11.2 °F 71% 30.46 in 10.0 mi NNE 4.6 mph - N/A   Overcast
9:12 AM -4.0 °F -14.6 °F -11.2 °F 71% 30.46 in 10.0 mi NE 4.6 mph - N/A   Overcast
9:31 AM -4.0 °F -16.3 °F -11.2 °F 71% 30.46 in 10.0 mi NNE 5.8 mph - N/A   Overcast
9:52 AM -4.0 °F -17.8 °F -9.4 °F 78% 30.46 in 10.0 mi NE 6.9 mph - N/A   Overcast
10:11 AM -2.2 °F -12.5 °F -9.4 °F 71% 30.48 in 10.0 mi NE 4.6 mph - N/A   Overcast
10:31 AM -0.4 °F -10.4 °F -9.4 °F 66% 30.47 in 10.0 mi ENE 4.6 mph - N/A   Overcast
10:52 AM -0.4 °F -10.4 °F -9.4 °F 66% 30.47 in 10.0 mi North 4.6 mph - N/A   Overcast
11:11 AM -0.4 °F -8.3 °F -9.4 °F 66% 30.46 in 10.0 mi NNE 3.5 mph - N/A   Overcast
11:31 AM -0.4 °F -8.3 °F -7.6 °F 72% 30.45 in 10.0 mi NNE 3.5 mph - N/A   Overcast
11:51 AM -0.4 °F -8.3 °F -9.4 °F 66% 30.44 in 10.0 mi NE 3.5 mph - N/A   Overcast
12:11 PM 1.4 °F -8.3 °F -7.6 °F 66% 30.44 in 10.0 mi North 4.6 mph - N/A   Overcast
12:32 PM 1.4 °F -6.2 °F -7.6 °F 66% 30.43 in 10.0 mi NNE 3.5 mph - N/A   Overcast
12:51 PM 1.4 °F -9.9 °F -7.6 °F 66% 30.43 in 10.0 mi NNE 5.8 mph - N/A   Overcast
1:11 PM 1.4 °F -9.9 °F -7.6 °F 66% 30.42 in 10.0 mi NNE 5.8 mph - N/A   Overcast
1:32 PM 1.4 °F -8.3 °F -7.6 °F 66% 30.42 in 10.0 mi NNE 4.6 mph - N/A   Overcast
1:51 PM 1.4 °F -8.3 °F -7.6 °F 66% 30.42 in 10.0 mi NNE 4.6 mph - N/A   Overcast
2:11 PM 1.4 °F -9.9 °F -7.6 °F 66% 30.41 in 10.0 mi NE 5.8 mph - N/A   Overcast
2:32 PM 3.2 °F -6.2 °F -7.6 °F 61% 30.41 in 10.0 mi NNE 4.6 mph - N/A   Overcast
2:51 PM 3.2 °F -6.2 °F -7.6 °F 61% 30.41 in 10.0 mi NNE 4.6 mph - N/A   Overcast
3:11 PM 3.2 °F -6.2 °F -5.8 °F 66% 30.41 in 10.0 mi North 4.6 mph - N/A   Overcast
3:32 PM 3.2 °F -6.2 °F -7.6 °F 61% 30.41 in 10.0 mi North 4.6 mph - N/A   Overcast
3:51 PM 3.2 °F -6.2 °F -5.8 °F 66% 30.41 in 10.0 mi North 4.6 mph - N/A   Overcast
4:11 PM 1.4 °F -6.2 °F -7.6 °F 66% 30.41 in 10.0 mi North 3.5 mph - N/A   Overcast
4:32 PM 1.4 °F -6.2 °F -7.6 °F 66% 30.41 in 10.0 mi North 3.5 mph - N/A   Overcast
4:51 PM 1.4 °F -8.3 °F -7.6 °F 66% 30.42 in 10.0 mi North 4.6 mph - N/A   Overcast
5:11 PM 1.4 °F -8.3 °F -7.6 °F 66% 30.42 in 10.0 mi NNW 4.6 mph - N/A   Overcast
5:32 PM -0.4 °F -10.4 °F -7.6 °F 72% 30.43 in 10.0 mi NNW 4.6 mph - N/A   Overcast
5:51 PM 1.4 °F -8.3 °F -7.6 °F 66% 30.44 in 10.0 mi North 4.6 mph - N/A   Overcast
6:11 PM 1.4 °F -8.3 °F -7.6 °F 66% 30.44 in 10.0 mi North 4.6 mph - N/A   Overcast
6:32 PM 1.4 °F -8.3 °F -7.6 °F 66% 30.44 in 10.0 mi North 4.6 mph - N/A   Overcast
6:51 PM 1.4 °F -9.9 °F -7.6 °F 66% 30.45 in 10.0 mi North 5.8 mph - N/A   Overcast
7:11 PM 1.4 °F -11.3 °F -7.6 °F 66% 30.44 in 10.0 mi North 6.9 mph - N/A   Overcast
7:32 PM 1.4 °F -8.3 °F -7.6 °F 66% 30.44 in 10.0 mi North 4.6 mph - N/A   Overcast
7:51 PM 1.4 °F -6.2 °F -7.6 °F 66% 30.43 in 10.0 mi North 3.5 mph - N/A   Overcast
8:12 PM 1.4 °F -11.3 °F -7.6 °F 66% 30.43 in 10.0 mi North 6.9 mph - N/A   Overcast
8:31 PM 1.4 °F -9.9 °F -7.6 °F 66% 30.43 in 10.0 mi North 5.8 mph - N/A   Overcast
8:51 PM 1.4 °F -9.9 °F -7.6 °F 66% 30.42 in 10.0 mi North 5.8 mph - N/A   Overcast
9:11 PM 1.4 °F -11.3 °F -7.6 °F 66% 30.42 in 10.0 mi North 6.9 mph - N/A   Overcast
9:31 PM 1.4 °F -8.3 °F -7.6 °F 66% 30.42 in 10.0 mi North 4.6 mph - N/A   Overcast
9:52 PM 1.4 °F -8.3 °F -7.6 °F 66% 30.43 in 10.0 mi North 4.6 mph - N/A   Overcast
10:11 PM 1.4 °F -6.2 °F -7.6 °F 66% 30.42 in 10.0 mi North 3.5 mph - N/A   Overcast
10:31 PM 1.4 °F -8.3 °F -7.6 °F 66% 30.42 in 10.0 mi North 4.6 mph - N/A   Overcast
10:52 PM 1.4 °F -6.2 °F -7.6 °F 66% 30.42 in 10.0 mi North 3.5 mph - N/A   Overcast
11:11 PM -0.4 °F -8.3 °F -7.6 °F 72% 30.42 in 10.0 mi North 3.5 mph - N/A   Overcast
11:31 PM -0.4 °F -12.0 °F -7.6 °F 72% 30.42 in 10.0 mi NNW 5.8 mph - N/A   Overcast
11:52 PM -0.4 °F -10.4 °F -7.6 °F 72% 30.42 in 10.0 mi NNW 4.6 mph - N/A   Overcast